TimeEDT,TemperatureF,Dew PointF,Humidity,Sea Level PressureIn,VisibilityMPH,Wind Direction,Wind SpeedMPH,Gust SpeedMPH,PrecipitationIn,Events,Conditions,WindDirDegrees,DateUTC
12:53 AM,35.1,23.0,61,30.44,10.0,NNE,5.8,-,N/A,,Clear,20,2013-04-21 04:53:00
1:53 AM,33.1,21.9,64,30.45,10.0,NE,6.9,-,N/A,,Clear,40,2013-04-21 05:53:00
2:53 AM,33.1,21.9,64,30.47,10.0,ENE,4.6,-,N/A,,Clear,60,2013-04-21 06:53:00
3:53 AM,32.0,21.9,66,30.48,10.0,NNE,5.8,-,N/A,,Clear,30,2013-04-21 07:53:00
4:53 AM,30.9,21.0,67,30.50,10.0,NE,5.8,-,N/A,,Clear,50,2013-04-21 08:53:00
5:53 AM,30.0,21.0,69,30.52,10.0,ENE,6.9,-,N/A,,Clear,70,2013-04-21 09:53:00
6:53 AM,28.9,21.0,72,30.55,10.0,East,6.9,-,N/A,,Clear,80,2013-04-21 10:53:00
7:53 AM,33.1,21.9,64,30.58,10.0,East,6.9,-,N/A,,Clear,90,2013-04-21 11:53:00
8:53 AM,36.0,21.9,57,30.60,10.0,East,8.1,-,N/A,,Clear,90,2013-04-21 12:53:00
9:53 AM,39.9,19.9,45,30.60,10.0,NE,13.8,-,N/A,,Clear,50,2013-04-21 13:53:00
10:53 AM,41.0,19.0,41,30.61,10.0,NNE,4.6,-,N/A,,Clear,30,2013-04-21 14:53:00
11:53 AM,44.1,19.9,38,30.60,10.0,East,10.4,-,N/A,,Clear,80,2013-04-21 15:53:00
12:53 PM,46.0,21.0,37,30.58,10.0,East,11.5,16.1,N/A,,Clear,80,2013-04-21 16:53:00
1:53 PM,46.9,19.9,34,30.55,10.0,ENE,11.5,17.3,N/A,,Clear,70,2013-04-21 17:53:00
2:53 PM,48.0,19.0,32,30.53,10.0,East,5.8,-,N/A,,Clear,80,2013-04-21 18:53:00
3:53 PM,50.0,19.0,29,30.50,10.0,Variable,6.9,-,N/A,,Clear,0,2013-04-21 19:53:00
4:53 PM,51.1,19.9,29,30.48,10.0,East,11.5,16.1,N/A,,Clear,80,2013-04-21 20:53:00
5:53 PM,50.0,18.0,28,30.48,10.0,East,3.5,-,N/A,,Clear,80,2013-04-21 21:53:00
6:53 PM,50.0,19.0,29,30.47,10.0,ENE,8.1,-,N/A,,Clear,70,2013-04-21 22:53:00
7:53 PM,48.0,16.0,28,30.47,10.0,NE,6.9,-,N/A,,Clear,50,2013-04-21 23:53:00
8:53 PM,46.9,16.0,29,30.47,10.0,NE,5.8,-,N/A,,Clear,40,2013-04-22 00:53:00
9:53 PM,46.0,16.0,30,30.48,10.0,NE,5.8,-,N/A,,Clear,40,2013-04-22 01:53:00
10:53 PM,45.0,16.0,31,30.46,10.0,NE,6.9,-,N/A,,Clear,40,2013-04-22 02:53:00
11:53 PM,43.0,19.0,38,30.46,10.0,East,8.1,-,N/A,,Clear,90,2013-04-22 03:53:00